Regional Weather Roundup
Issued by NWS Upton, NY

Current Version | Previous Version | Graphics & Text | Print | Product List | Glossary Off
Versions: 1 2 3 4 5 6 7 8 9 10 11 12 13 14 15 16 17 18 19 20 21 22 23 24 25 26 27 28 29 30 31 32 33 34 35 36 37 38 39 40 41 42 43 44 45 46 47 48 49 50

000
ASUS41 KOKX 282109
RWROKX

REGIONAL WEATHER ROUNDUP
NATIONAL WEATHER SERVICE NEW YORK NY
500 PM EDT FRI JUL 28 2017

NOTE: "FAIR" INDICATES FEW OR NO CLOUDS BELOW 12,000 FEET WITH NO
SIGNIFICANT WEATHER AND/OR OBSTRUCTIONS TO VISIBILITY.

NYZ071-072-176-178-NJZ106-104-282200-
NEW YORK CITY METRO AREA

CITY           SKY/WX    TMP DP  RH WIND       PRES   REMARKS
Central Park   MOSUNNY   81  67  62 CALM      29.82F
Bronx Bot Gard   N/A     82  63  51 E3        29.79F
LaGuardia APRT PTSUNNY   82  68  62 NE10      29.78F
Kennedy INTL   PTSUNNY   81  70  69 SE7       29.80F
Breezy Point     N/A     75 N/A N/A SE5         N/A
Newark/Liberty CLOUDY    81  69  67 S10G16    29.78F
Teterboro      MOSUNNY   85  62  46 NE7       29.78F
$$

NYZ177-179-078>081-282200-
LONG ISLAND NEW YORK

CITY           SKY/WX    TMP DP  RH WIND       PRES   REMARKS
Jones Beach      N/A     75 N/A N/A SE6         N/A
Matinecock PT    N/A     77 N/A N/A E7          N/A
Farmingdale    CLOUDY    79  69  71 E7        29.79F
MacArthur/ISP  CLOUDY    79  67  66 E5        29.79F
Shirley        MOSUNNY   79  73  82 CALM      29.80F
Mt Sinai Harb    N/A     81 N/A N/A NE1         N/A
Westhampton    CLOUDY    77  68  73 SE3       29.81F
East Hampton   FAIR      76  69  77 SW3       29.80F
Montauk          N/A     77  72  84 VRB5      29.82F
$$

NYZ052-065-067-282200-
HUDSON VALLEY

CITY           SKY/WX    TMP DP  RH WIND       PRES   REMARKS
White Plains   MOSUNNY   83  61  47 VRB5      29.80F
Larchmont Harb   N/A     77 N/A N/A E7          N/A
Croton O-T Hud   N/A     81 N/A N/A W5          N/A
Newburgh       MOSUNNY   81  66  61 VRB6      29.84S
Montgomery     CLOUDY    81  66  60 NE7       29.81F
Poughkeepsie   PTSUNNY   82  63  52 NE9       29.81S
Albany         PTSUNNY   77  56  48 E7        29.85S
$$

NJZ001-105-106-008-010-013-015-019>022-104-282200-
NEW JERSEY

CITY           SKY/WX    TMP DP  RH WIND       PRES   REMARKS
Newark/Liberty CLOUDY    81  69  67 S10G16    29.78F
Teterboro      MOSUNNY   85  62  46 NE7       29.78F
Caldwell       PTSUNNY   83  66  56 E6        29.79F
Somerville     PTSUNNY   85  67  54 NE7       29.76F
Linden         FAIR      81  66  60 CALM      29.79S
Perth Amboy      N/A     79 N/A N/A E8          N/A
Sussex         CLOUDY    81  64  56 NE6       29.81F
Andover          N/A     81  64  56 NE3       29.81F
Trenton        CLOUDY    83  68  60 SE7       29.77F
Millville      CLOUDY    77  75  93 SE8       29.78R
Atlantic City  CLOUDY    77  72  84 E10       29.78S
Wrightstown    CLOUDY    81  69  68 E8        29.74F
Toms River     CLOUDY    80  71  74 NE7       29.79F
Belmar         CLOUDY    79  69  71 NE7       29.80F
$$

PAZ047>061-062-071-282200-
EASTERN PENNSYLVANIA

CITY           SKY/WX    TMP DP  RH WIND       PRES   REMARKS
Philadelphia   CLOUDY    83  67  58 SE6       29.76F
Allentown      CLOUDY    84  66  54 E6        29.79F
Scranton       PTSUNNY   81  63  54 N9        29.83F
$$

CTZ002-004>006-009-010-012-RIZ004-006-007-MAZ004-011-015-282200-
SOUTHERN NEW ENGLAND
 IN CT

CITY           SKY/WX    TMP DP  RH WIND       PRES   REMARKS
Bradley INTL   CLOUDY    83  64  52 NE7       29.81F
Hartford       CLOUDY    81  65  58 NE5       29.79F
Danbury        PTSUNNY   82  64  54 VRB6      29.82F
Wtrbury/Oxford PTSUNNY   79  63  57 CALM      29.85F
Bridgeport     MOSUNNY   81  62  52 S5        29.79F
Meriden        CLOUDY    81  65  58 W3        29.80F
New Haven      MOSUNNY   82  63  52 SE5       29.80F
Chester        FAIR      79  64  61 S6        29.82S
Groton         CLOUDY    76  69  79 S9        29.80F
Wilimantic     MOSUNNY   82  64  54 VRB5      29.80F

 IN RI

CITY           SKY/WX    TMP DP  RH WIND       PRES   REMARKS
Providence     CLOUDY    79  70  74 S10       29.81F
Block Island   CLOUDY    76  70  82 S9        29.82F
Westerly       CLOUDY    79  70  74 S9        29.81F
 IN MA

CITY           SKY/WX    TMP DP  RH WIND       PRES   REMARKS
Boston         PTSUNNY   74  63  68 SE12      29.80S
Worcester      CLOUDY    77  58  51 W7        29.85S
Westfield      PTSUNNY   82  62  50 N6        29.81S
Provincetown   PTSUNNY   78  63  59 SE6       29.82F
Nantucket      SUNNY     73  69  87 SW10      29.83F
$$

ANZ330-335-338-340-345-350-353-355-282200-
COASTAL MARINE OBSERVATIONS


STATION/POSITION TIME  SKY/WX   TEMP    WIND        PRES    VSBY  WAVE
                                AIR SEA DIR/SP/G                  HT/PER
                 (UTC)          (F)     (DEG/KT/KT) (MB)    (MI)  (FT/S)
NY HARB ENTRANCE 1950            74 75  110/  4/  6 1008.8          2/ 5
20 S FIRE ISLAND 2050            74 76  100/  6/  6 1008.4          2/ 7
GREAT SOUTH BAY  2030            75 79  130/  4/  4   N/A
23 SSW MONTAUK P 1950            75 76              1010.1          2/ 5
15 E BARNEGAT LI 2030               75                N/A           3/ 6
HUDSON CANYON    1950            73 73   60/  8/  8 1008.4          4/ 7
KINGS POINT      2036            81 73   50/  5/  6 1008.6
EXECUTION ROCKS  2045            79      90/  8/  8   N/A
CENTRAL LI SOUND 2015            76     180/  4/  4   N/A           1
EASTERN LI SOUND NOT AVBL
ROBBINS REEF     2036                   170/ 10/ 11 1009.2
$$


>>>>>>>>>>>>>>>>>>>>>>>>>>>> KEY <<<<<<<<<<<<<<<<<<<<<<<<<<<
>                                                          <
>     SKY/WX - Sky Condition/Present Weather               <
>     TMP    - Temperature in Fahrenheit                   <
>     DP     - Dew Point in Fahrenheit                     <
>     RH     - Relative Humidity in Percent                <
>     WIND   - Direction (from) and Speed in MPH           <
>     PRES   - Mean Sea Level Pressure (inches of Hg)      <
>     WCI    - Wind Chill Index                            <
>     VSB    - VISIBILITY IN MILES                         <
>     HX     - HEAT INDEX                                  <
>     TC     - TEMPERATURE IN CELSIUS                      <
>     VRB    - VARIABLE WIND DIRECTION                     <
>                                                          <
>>>>>>>>>>>>>>>>>>>>>>>>>>>> KEY <<<<<<<<<<<<<<<<<<<<<<<<<<<



USA.gov is the U.S. government's official web portal to all federal, state and local government web resources and services.